| time (UTC) | temp F | wind direction | speed knots | gust knots | rain 1hr in | rain 24hr in | rain mn in | humidity % | barometer mb |
| 20260510230757 | 77 | 225 | 0.9 | 4.3 | 0.00 | 0.01 | 0.00 | 91 | 1015.4 |
| 20260510230251 | 77 | 185 | 0.9 | 6.1 | 0.00 | 0.01 | 0.00 | 91 | 1015.4 |
| 20260510224501 | 77 | 234 | 1.7 | 6.1 | 0.00 | 0.01 | 0.00 | 91 | 1015.4 |
| 20260510223948 | 77 | 220 | 0.9 | 5.2 | 0.00 | 0.01 | 0.00 | 90 | 1015.3 |
| 20260510223446 | 77 | 188 | 0.9 | 5.2 | 0.00 | 0.03 | 0.00 | 91 | 1015.3 |
| 20260510222946 | 77 | 267 | 1.7 | 5.2 | 0.00 | 0.03 | 0.00 | 91 | 1015.3 |
| 20260510222452 | 77 | 174 | 1.7 | 5.2 | 0.00 | 0.03 | 0.00 | 91 | 1015.3 |
| 20260510221952 | 77 | 132 | 1.7 | 5.2 | 0.00 | 0.03 | 0.00 | 92 | 1015.2 |
| 20260510221441 | 77 | 138 | 0.9 | 5.2 | 0.00 | 0.03 | 0.00 | 92 | 1015.2 |
| 20260510220921 | 77 | 226 | 1.7 | 6.1 | 0.00 | 0.03 | 0.00 | 92 | 1015.3 |
| 20260510213905 | 78 | 215 | 1.7 | 7.8 | 0.00 | 0.03 | 0.00 | 91 | 1015.5 |
| 20260510213402 | 78 | 205 | 1.7 | 7.8 | 0.00 | 0.03 | 0.00 | 90 | 1015.4 |
| 20260510212900 | 78 | 175 | 1.7 | 7.8 | 0.00 | 0.03 | 0.00 | 91 | 1015.4 |
| 20260510212405 | 78 | 229 | 2.6 | 7.8 | 0.00 | 0.03 | 0.00 | 90 | 1015.4 |
| 20260510211845 | 78 | 159 | 1.7 | 6.1 | 0.00 | 0.03 | 0.00 | 90 | 1015.5 |
| 20260510211346 | 79 | 169 | 1.7 | 6.1 | 0.00 | 0.03 | 0.00 | 90 | 1015.3 |
| 20260510210847 | 78 | 186 | 1.7 | 6.1 | 0.00 | 0.03 | 0.00 | 89 | 1015.5 |
| 20260510210348 | 78 | 178 | 1.7 | 6.1 | 0.00 | 0.03 | 0.00 | 90 | 1015.5 |
| 20260510205832 | 78 | 161 | 1.7 | 6.1 | 0.00 | 0.03 | 0.00 | 90 | 1015.5 |
| 20260510205342 | 78 | 229 | 1.7 | 6.1 | 0.00 | 0.03 | 0.00 | 91 | 1015.4 |
| 20260510204848 | 78 | 210 | 2.6 | 6.1 | 0.00 | 0.03 | 0.00 | 90 | 1015.4 |
| 20260510204334 | 79 | 191 | 2.6 | 6.1 | 0.00 | 0.03 | 0.00 | 89 | 1015.5 |
| 20260510203830 | 79 | 201 | 1.7 | 6.1 | 0.00 | 0.03 | 0.00 | 89 | 1015.5 |
| 20260510203331 | 79 | 227 | 1.7 | 6.1 | 0.00 | 0.03 | 0.00 | 89 | 1015.5 |
| 20260510202827 | 79 | 204 | 2.6 | 6.1 | 0.00 | 0.03 | 0.00 | 89 | 1015.5 |
| 20260510202314 | 79 | 207 | 2.6 | 7.0 | 0.00 | 0.03 | 0.00 | 88 | 1015.7 |
| 20260510201815 | 79 | 148 | 2.6 | 7.0 | 0.00 | 0.03 | 0.00 | 88 | 1015.6 |
| 20260510201310 | 79 | 240 | 2.6 | 7.0 | 0.00 | 0.03 | 0.00 | 87 | 1015.8 |
| 20260510200202 | 78 | 181 | 1.7 | 6.1 | 0.00 | 0.03 | 0.00 | 88 | 1015.8 |
| 20260510195658 | 78 | 219 | 1.7 | 6.1 | 0.00 | 0.03 | 0.00 | 90 | 1015.9 |
| 20260510194536 | 78 | 207 | 2.6 | 8.7 | 0.00 | 0.03 | 0.00 | 91 | 1015.8 |
| 20260510194021 | 78 | 173 | 2.6 | 8.7 | 0.00 | 0.03 | 0.00 | 90 | 1015.8 |
| 20260510193524 | 78 | 224 | 2.6 | 8.7 | 0.00 | 0.03 | 0.00 | 90 | 1015.8 |
| 20260510191800 | 78 | 223 | 2.6 | 6.1 | 0.00 | 0.03 | 0.00 | 90 | 1015.8 |
| 20260510190633 | 79 | 162 | 1.7 | 6.1 | 0.00 | 0.03 | 0.00 | 89 | 1015.8 |
| 20260510190137 | 80 | 241 | 1.7 | 6.1 | 0.00 | 0.03 | 0.00 | 90 | 1015.7 |
| 20260510185619 | 79 | 193 | 1.7 | 6.1 | 0.00 | 0.03 | 0.00 | 90 | 1015.8 |
| 20260510185103 | 79 | 211 | 2.6 | 8.7 | 0.00 | 0.03 | 0.00 | 90 | 1015.8 |
| 20260510184557 | 79 | 202 | 2.6 | 8.7 | 0.00 | 0.03 | 0.00 | 90 | 1015.9 |
| 20260510184040 | 79 | 133 | 3.5 | 8.7 | 0.00 | 0.03 | 0.00 | 91 | 1016.0 |
| 20260510182240 | 80 | 191 | 1.7 | 8.7 | 0.00 | 0.03 | 0.00 | 82 | 1016.0 |
| 20260510181735 | 80 | 123 | 1.7 | 8.7 | 0.00 | 0.03 | 0.00 | 81 | 1016.0 |
| 20260510181220 | 80 | 169 | 1.7 | 8.7 | 0.00 | 0.03 | 0.00 | 83 | 1016.1 |
| 20260510180725 | 81 | 178 | 1.7 | 8.7 | 0.00 | 0.03 | 0.00 | 85 | 1016.1 |
| 20260510180214 | 81 | 145 | 1.7 | 5.2 | 0.00 | 0.03 | 0.00 | 85 | 1016.1 |
| 20260510175701 | 81 | 109 | 1.7 | 5.2 | 0.00 | 0.03 | 0.00 | 84 | 1016.1 |
| 20260510175201 | 81 | 100 | 0.9 | 4.3 | 0.00 | 0.03 | 0.00 | 85 | 1016.1 |
| 20260510174646 | 80 | 132 | 0.9 | 5.2 | 0.00 | 0.03 | 0.00 | 86 | 1016.2 |
| 20260510174130 | 80 | 190 | 0.9 | 5.2 | 0.00 | 0.03 | 0.00 | 88 | 1016.3 |
| 20260510173634 | 80 | 157 | 1.7 | 5.2 | 0.00 | 0.03 | 0.00 | 88 | 1016.2 |
| 20260510173130 | 80 | 109 | 1.7 | 5.2 | 0.00 | 0.03 | 0.00 | 86 | 1016.2 |
| 20260510172614 | 80 | 128 | 0.9 | 4.3 | 0.00 | 0.03 | 0.00 | 88 | 1016.2 |
| 20260510172122 | 80 | 132 | 0.9 | 4.3 | 0.00 | 0.03 | 0.00 | 86 | 1016.3 |
| 20260510171626 | 80 | 98 | 0.9 | 4.3 | 0.00 | 0.03 | 0.00 | 87 | 1016.4 |
| 20260510170434 | 80 | 113 | 0.9 | 3.5 | 0.00 | 0.10 | 0.00 | 87 | 1016.6 |
| 20260510165923 | 80 | 93 | 0.9 | 5.2 | 0.00 | 0.13 | 0.00 | 87 | 1016.7 |
| 20260510165426 | 80 | 112 | 0.9 | 5.2 | 0.00 | 0.16 | 0.00 | 87 | 1016.8 |
| 20260510164922 | 79 | 136 | 1.7 | 5.2 | 0.00 | 0.24 | 0.00 | 88 | 1016.8 |
| 20260510162509 | 78 | 165 | 0.9 | 5.2 | 0.00 | 0.30 | 0.00 | 92 | 1016.7 |
| 20260510162005 | 77 | 70 | 1.7 | 5.2 | 0.00 | 0.36 | 0.00 | 92 | 1016.8 |
| 20260510161508 | 77 | 69 | 1.7 | 5.2 | 0.00 | 0.40 | 0.00 | 92 | 1016.7 |
| 20260510161008 | 77 | 244 | 1.7 | 5.2 | 0.00 | 0.42 | 0.00 | 93 | 1016.7 |
| 20260510155857 | 76 | 111 | 0.9 | 5.2 | 0.00 | 0.42 | 0.00 | 93 | 1016.9 |
| 20260510154732 | 75 | 150 | 0.9 | 5.2 | 0.00 | 0.42 | 0.00 | 94 | 1017.0 |
| 20260510154227 | 75 | 119 | 1.7 | 5.2 | 0.00 | 0.42 | 0.00 | 94 | 1016.9 |
| 20260510153710 | 75 | 90 | 1.7 | 5.2 | 0.00 | 0.42 | 0.00 | 94 | 1016.9 |
| 20260510153151 | 75 | 74 | 0.9 | 5.2 | 0.00 | 0.42 | 0.00 | 94 | 1016.9 |
| 20260510151425 | 76 | 128 | 1.7 | 6.1 | 0.00 | 0.45 | 0.00 | 94 | 1016.8 |
| 20260510150934 | 75 | 136 | 1.7 | 6.1 | 0.00 | 0.45 | 0.00 | 94 | 1016.9 |
| 20260510150436 | 75 | 128 | 1.7 | 5.2 | 0.00 | 0.45 | 0.00 | 94 | 1017.0 |
| 20260510145313 | 75 | 105 | 0.9 | 5.2 | 0.00 | 0.45 | 0.00 | 93 | 1017.0 |
| 20260510144803 | 75 | 49 | 1.7 | 5.2 | 0.00 | 0.45 | 0.00 | 93 | 1017.0 |
| 20260510144245 | 75 | 117 | 1.7 | 5.2 | 0.00 | 0.45 | 0.00 | 93 | 1017.0 |
| 20260510143751 | 75 | 101 | 1.7 | 5.2 | 0.00 | 0.45 | 0.00 | 93 | 1017.0 |
| 20260510143254 | 75 | 146 | 1.7 | 5.2 | 0.00 | 0.45 | 0.00 | 93 | 1016.9 |
| 20260510142756 | 75 | 98 | 0.9 | 5.2 | 0.00 | 0.45 | 0.00 | 94 | 1016.9 |
| 20260510142251 | 75 | 80 | 0.9 | 5.2 | 0.00 | 0.45 | 0.00 | 94 | 1017.0 |
| 20260510141755 | 74 | 75 | 0.9 | 5.2 | 0.00 | 0.45 | 0.00 | 94 | 1016.9 |
| 20260510141240 | 75 | 57 | 0.9 | 4.3 | 0.00 | 0.45 | 0.00 | 94 | 1016.9 |
| 20260510140725 | 74 | 88 | 0.9 | 2.6 | 0.00 | 0.45 | 0.00 | 94 | 1016.8 |
| 20260510140228 | 74 | 57 | 0.9 | 3.5 | 0.00 | 0.45 | 0.00 | 94 | 1016.8 |
| 20260510135714 | 74 | 84 | 0.9 | 3.5 | 0.00 | 0.45 | 0.00 | 94 | 1016.7 |
| 20260510135157 | 73 | 84 | 0.0 | 3.5 | 0.00 | 0.45 | 0.00 | 94 | 1016.7 |
| 20260510134646 | 72 | 145 | 0.0 | 3.5 | 0.00 | 0.45 | 0.00 | 94 | 1016.6 |
| 20260510134129 | 72 | 5 | 0.0 | 2.6 | 0.00 | 0.45 | 0.00 | 94 | 1016.6 |
| 20260510133636 | 71 | 34 | 0.0 | 2.6 | 0.00 | 0.45 | 0.00 | 94 | 1016.6 |
| 20260510132502 | 71 | 98 | 0.9 | 3.5 | 0.00 | 0.45 | 0.00 | 93 | 1016.6 |
| 20260510130710 | 72 | 68 | 0.9 | 5.2 | 0.00 | 0.45 | 0.00 | 94 | 1016.3 |
| 20260510130204 | 72 | 88 | 0.0 | 5.2 | 0.00 | 0.45 | 0.00 | 91 | 1016.4 |
| 20260510125645 | 71 | 70 | 0.0 | 3.5 | 0.00 | 0.45 | 0.00 | 90 | 1016.3 |
| 20260510124524 | 70 | 187 | 0.0 | 2.6 | 0.00 | 0.45 | 0.00 | 87 | 1016.1 |
| 20260510124016 | 69 | 43 | 0.0 | 2.6 | 0.00 | 0.45 | 0.00 | 87 | 1016.1 |
| 20260510123524 | 69 | 64 | 0.0 | 0.9 | 0.00 | 0.45 | 0.00 | 87 | 1016.1 |
| 20260510123010 | 68 | 301 | 0.0 | 0.9 | 0.00 | 0.45 | 0.00 | 87 | 1016.0 |
| 20260510122514 | 68 | 349 | 0.0 | 0.9 | 0.00 | 0.45 | 0.00 | 87 | 1015.9 |
| 20260510121955 | 68 | 349 | 0.0 | 2.6 | 0.00 | 0.45 | 0.00 | 87 | 1015.9 |
| 20260510121502 | 68 | 70 | 0.0 | 2.6 | 0.00 | 0.45 | 0.00 | 87 | 1015.8 |
| 20260510120947 | 68 | 37 | 0.0 | 2.6 | 0.00 | 0.45 | 0.00 | 87 | 1015.7 |
| 20260510115840 | 67 | 33 | 0.0 | 0.0 | 0.00 | 0.45 | 0.00 | 87 | 1015.7 |
| 20260510115340 | 67 | 44 | 0.0 | 0.0 | 0.00 | 0.45 | 0.00 | 88 | 1015.7 |
| 20260510114828 | 67 | 44 | 0.0 | 0.0 | 0.00 | 0.45 | 0.00 | 88 | 1015.6 |
| 20260510114311 | 67 | 346 | 0.0 | 0.9 | 0.00 | 0.45 | 0.00 | 87 | 1015.5 |
| 20260510113755 | 67 | 66 | 0.0 | 0.0 | 0.00 | 0.45 | 0.00 | 87 | 1015.3 |
| 20260510113236 | 67 | 336 | 0.0 | 0.0 | 0.00 | 0.45 | 0.00 | 87 | 1015.3 |
| 20260510112742 | 67 | 342 | 0.0 | 0.0 | 0.00 | 0.45 | 0.00 | 87 | 1015.1 |
| 20260510111635 | 67 | 0 | 0.0 | 0.0 | 0.00 | 0.45 | 0.00 | 88 | 1015.0 |
| 20260510111142 | 67 | 0 | 0.0 | 0.0 | 0.00 | 0.45 | 0.00 | 88 | 1015.0 |
| 20260510110642 | 67 | 0 | 0.0 | 0.0 | 0.00 | 0.45 | 0.00 | 88 | 1014.9 |
| 20260510110136 | 67 | 314 | 0.0 | 2.6 | 0.00 | 0.45 | 0.00 | 87 | 1014.7 |
| 20260510105643 | 67 | 5 | 0.9 | 2.6 | 0.00 | 0.45 | 0.00 | 87 | 1014.5 |
| 20260510104520 | 67 | 0 | 0.0 | 1.7 | 0.00 | 0.45 | 0.00 | 88 | 1014.5 |
| 20260510104021 | 67 | 0 | 0.0 | 0.9 | 0.00 | 0.45 | 0.00 | 88 | 1014.3 |
| 20260510103525 | 67 | 349 | 0.0 | 0.9 | 0.00 | 0.45 | 0.00 | 88 | 1014.3 |
| 20260510102350 | 67 | 355 | 0.0 | 0.0 | 0.00 | 0.45 | 0.00 | 88 | 1014.2 |
| 20260510101847 | 67 | 22 | 0.0 | 0.0 | 0.00 | 0.45 | 0.00 | 87 | 1014.2 |
| 20260510100730 | 67 | 34 | 0.0 | 0.0 | 0.00 | 0.45 | 0.00 | 87 | 1014.1 |
| 20260510100215 | 67 | 48 | 0.0 | 0.0 | 0.00 | 0.45 | 0.00 | 88 | 1014.1 |
| 20260510095720 | 67 | 55 | 0.0 | 0.0 | 0.00 | 0.45 | 0.00 | 88 | 1014.0 |
| 20260510095202 | 67 | 55 | 0.0 | 0.0 | 0.00 | 0.45 | 0.00 | 88 | 1014.0 |
| 20260510094040 | 67 | 38 | 0.0 | 0.0 | 0.00 | 0.45 | 0.00 | 87 | 1013.8 |
| 20260510093546 | 67 | 355 | 0.0 | 0.0 | 0.00 | 0.45 | 0.00 | 88 | 1013.7 |
| 20260510093030 | 67 | 355 | 0.0 | 0.0 | 0.00 | 0.45 | 0.00 | 88 | 1013.7 |
| 20260510092535 | 67 | 355 | 0.0 | 0.0 | 0.00 | 0.45 | 0.00 | 88 | 1013.8 |
| 20260510092031 | 67 | 355 | 0.0 | 0.0 | 0.00 | 0.46 | 0.00 | 88 | 1013.7 |
| 20260510090233 | 67 | 26 | 0.0 | 0.0 | 0.00 | 0.47 | 0.00 | 87 | 1013.3 |
| 20260510085727 | 67 | 26 | 0.0 | 0.0 | 0.00 | 0.47 | 0.00 | 87 | 1013.4 |
| 20260510085210 | 67 | 26 | 0.0 | 0.0 | 0.00 | 0.47 | 0.00 | 87 | 1013.4 |
| 20260510084659 | 67 | 26 | 0.0 | 0.0 | 0.00 | 0.47 | 0.00 | 87 | 1013.3 |
| 20260510084142 | 67 | 26 | 0.0 | 0.0 | 0.00 | 0.47 | 0.00 | 88 | 1013.1 |
| 20260510083634 | 67 | 26 | 0.0 | 0.0 | 0.00 | 0.47 | 0.00 | 88 | 1013.1 |
| 20260510083126 | 66 | 26 | 0.0 | 0.0 | 0.00 | 0.47 | 0.00 | 88 | 1013.1 |
| 20260510082622 | 66 | 0 | 0.0 | 0.0 | 0.00 | 0.47 | 0.00 | 88 | 1013.0 |
| 20260510082117 | 66 | 36 | 0.0 | 0.0 | 0.00 | 0.47 | 0.00 | 88 | 1013.2 |
| 20260510081625 | 66 | 36 | 0.0 | 0.0 | 0.00 | 0.47 | 0.00 | 88 | 1013.2 |
| 20260510081115 | 66 | 36 | 0.0 | 0.0 | 0.00 | 0.47 | 0.00 | 88 | 1013.3 |
| 20260510080559 | 66 | 36 | 0.0 | 0.0 | 0.00 | 0.47 | 0.00 | 88 | 1013.2 |
| 20260510075555 | 66 | 36 | 0.0 | 0.0 | 0.00 | 0.48 | 0.00 | 88 | 1013.3 |
| 20260510075048 | 66 | 36 | 0.0 | 0.0 | 0.00 | 0.48 | 0.00 | 88 | 1013.3 |
| 20260510073923 | 66 | 36 | 0.0 | 0.0 | 0.00 | 0.48 | 0.00 | 88 | 1013.4 |
| 20260510073432 | 66 | 36 | 0.0 | 0.0 | 0.00 | 0.49 | 0.00 | 88 | 1013.3 |
| 20260510072915 | 66 | 36 | 0.0 | 0.0 | 0.00 | 0.49 | 0.00 | 88 | 1013.2 |
| 20260510072409 | 66 | 36 | 0.0 | 0.0 | 0.00 | 0.49 | 0.00 | 88 | 1013.2 |
| 20260510071851 | 66 | 36 | 0.0 | 0.0 | 0.00 | 0.49 | 0.00 | 88 | 1013.1 |
| 20260510071337 | 66 | 36 | 0.0 | 0.0 | 0.00 | 0.49 | 0.00 | 88 | 1013.1 |
| 20260510070835 | 66 | 36 | 0.0 | 0.0 | 0.00 | 0.49 | 0.00 | 88 | 1013.2 |
| 20260510070339 | 66 | 36 | 0.0 | 0.0 | 0.00 | 0.49 | 0.00 | 88 | 1013.2 |
| 20260510065224 | 66 | 36 | 0.0 | 0.0 | 0.00 | 0.49 | 0.00 | 88 | 1013.2 |
| 20260510064715 | 67 | 35 | 0.0 | 0.0 | 0.00 | 0.49 | 0.00 | 88 | 1013.3 |
| 20260510064155 | 67 | 36 | 0.0 | 0.0 | 0.00 | 0.49 | 0.00 | 88 | 1013.3 |
| 20260510063033 | 67 | 36 | 0.0 | 0.0 | 0.00 | 0.49 | 0.00 | 88 | 1013.4 |
| 20260510062542 | 67 | 36 | 0.0 | 0.0 | 0.00 | 0.49 | 0.00 | 88 | 1013.3 |
| 20260510060147 | 67 | 36 | 0.0 | 0.0 | 0.00 | 0.49 | 0.00 | 88 | 1013.2 |
| 20260510055650 | 67 | 36 | 0.0 | 0.0 | 0.00 | 0.49 | 0.00 | 88 | 1013.2 |
| 20260510054515 | 67 | 5 | 0.0 | 0.0 | 0.00 | 0.49 | 0.00 | 88 | 1013.2 |
| 20260510054011 | 67 | 5 | 0.0 | 0.0 | 0.00 | 0.49 | 0.00 | 88 | 1013.4 |
| 20260510053520 | 67 | 5 | 0.0 | 0.0 | 0.00 | 0.49 | 0.00 | 88 | 1013.3 |
| 20260510053019 | 67 | 5 | 0.0 | 0.0 | 0.00 | 0.49 | 0.00 | 88 | 1013.4 |
| 20260510051916 | 67 | 5 | 0.0 | 0.0 | 0.00 | 0.49 | 0.00 | 88 | 1013.5 |
| 20260510051401 | 67 | 5 | 0.0 | 0.0 | 0.00 | 0.49 | 0.00 | 88 | 1013.5 |
| 20260510050902 | 68 | 5 | 0.0 | 0.0 | 0.00 | 0.49 | 0.00 | 88 | 1013.5 |
| 20260510050354 | 68 | 5 | 0.0 | 0.0 | 0.00 | 0.49 | 0.00 | 88 | 1013.7 |
| 20260510045843 | 68 | 5 | 0.0 | 0.0 | 0.00 | 0.49 | 0.50 | 88 | 1013.6 |
| 20260510044702 | 68 | 5 | 0.0 | 0.0 | 0.00 | 0.49 | 0.50 | 88 | 1013.9 |
| 20260510044145 | 68 | 5 | 0.0 | 0.0 | 0.00 | 0.49 | 0.50 | 88 | 1013.8 |
| 20260510043627 | 68 | 5 | 0.0 | 0.0 | 0.00 | 0.49 | 0.50 | 88 | 1013.9 |
| 20260510043121 | 68 | 5 | 0.0 | 0.0 | 0.00 | 0.49 | 0.50 | 88 | 1014.0 |
| 20260510042620 | 68 | 5 | 0.0 | 0.0 | 0.00 | 0.49 | 0.50 | 88 | 1014.0 |
| 20260510042104 | 68 | 5 | 0.0 | 0.0 | 0.00 | 0.49 | 0.50 | 88 | 1014.2 |
| 20260510041555 | 68 | 5 | 0.0 | 0.0 | 0.00 | 0.49 | 0.50 | 88 | 1014.0 |
| 20260510041058 | 68 | 5 | 0.0 | 0.0 | 0.00 | 0.49 | 0.50 | 88 | 1013.8 |
| 20260510040553 | 68 | 5 | 0.0 | 0.9 | 0.00 | 0.49 | 0.50 | 88 | 1013.9 |
| 20260510040047 | 68 | 5 | 0.0 | 0.9 | 0.00 | 0.49 | 0.50 | 88 | 1014.0 |
| 20260510035529 | 69 | 5 | 0.0 | 0.9 | 0.00 | 0.49 | 0.50 | 88 | 1014.0 |
| 20260510035022 | 69 | 65 | 0.0 | 0.0 | 0.00 | 0.49 | 0.50 | 88 | 1014.0 |
| 20260510034512 | 69 | 65 | 0.0 | 0.0 | 0.00 | 0.49 | 0.50 | 88 | 1014.0 |
| 20260510034022 | 69 | 65 | 0.0 | 0.0 | 0.00 | 0.49 | 0.50 | 88 | 1014.1 |
| 20260510033518 | 69 | 65 | 0.0 | 0.0 | 0.00 | 0.49 | 0.50 | 89 | 1014.2 |
| 20260510033014 | 69 | 65 | 0.0 | 0.0 | 0.00 | 0.49 | 0.50 | 89 | 1014.4 |
| 20260510032457 | 69 | 65 | 0.0 | 0.0 | 0.00 | 0.50 | 0.50 | 89 | 1014.1 |
| 20260510031328 | 69 | 65 | 0.0 | 1.7 | 0.00 | 0.50 | 0.50 | 90 | 1012.8 |
| 20260510030207 | 69 | 326 | 0.0 | 1.7 | 0.00 | 0.52 | 0.50 | 90 | 1012.8 |
| 20260510025704 | 69 | 298 | 0.0 | 0.9 | 0.00 | 0.53 | 0.50 | 91 | 1013.0 |
| 20260510025212 | 70 | 28 | 0.0 | 0.9 | 0.00 | 0.54 | 0.50 | 91 | 1012.7 |
| 20260510024707 | 70 | 122 | 0.0 | 0.0 | 0.00 | 0.55 | 0.50 | 91 | 1013.1 |
| 20260510024207 | 70 | 122 | 0.0 | 0.0 | 0.00 | 0.55 | 0.50 | 91 | 1013.2 |
| 20260510023658 | 70 | 74 | 0.0 | 6.1 | 0.00 | 0.55 | 0.49 | 91 | 1013.1 |
| 20260510023146 | 70 | 54 | 0.0 | 6.1 | 0.00 | 0.55 | 0.49 | 91 | 1013.2 |
| 20260510022627 | 70 | 86 | 0.9 | 6.1 | 0.00 | 0.55 | 0.49 | 91 | 1013.2 |
| 20260510022127 | 70 | 102 | 0.0 | 2.6 | 0.00 | 0.55 | 0.49 | 90 | 1013.2 |
| 20260510020956 | 70 | 198 | 0.0 | 7.0 | 0.00 | 0.55 | 0.49 | 90 | 1013.6 |
| 20260510020456 | 70 | 121 | 0.9 | 7.0 | 0.00 | 0.55 | 0.49 | 90 | 1013.8 |
| 20260510015947 | 70 | 145 | 0.9 | 7.0 | 0.00 | 0.55 | 0.49 | 89 | 1013.9 |
| 20260510014759 | 69 | 163 | 0.9 | 3.5 | 0.00 | 0.55 | 0.49 | 88 | 1013.9 |
| 20260510014309 | 69 | 216 | 0.0 | 2.6 | 0.00 | 0.55 | 0.49 | 88 | 1014.0 |
| 20260510013154 | 69 | 36 | 0.0 | 0.0 | 0.00 | 0.55 | 0.49 | 88 | 1013.9 |
| 20260510012649 | 69 | 36 | 0.0 | 0.0 | 0.00 | 0.55 | 0.49 | 88 | 1013.7 |
| 20260510012147 | 69 | 36 | 0.0 | 0.0 | 0.00 | 0.55 | 0.49 | 89 | 1013.7 |
| 20260510011037 | 69 | 36 | 0.0 | 0.0 | 0.00 | 0.55 | 0.49 | 89 | 1013.6 |
| 20260510010533 | 69 | 36 | 0.0 | 0.0 | 0.00 | 0.55 | 0.49 | 89 | 1013.4 |
| 20260510010017 | 69 | 36 | 0.0 | 0.0 | 0.00 | 0.56 | 0.49 | 89 | 1013.3 |
| 20260510005505 | 69 | 36 | 0.0 | 0.0 | 0.00 | 0.56 | 0.49 | 89 | 1013.3 |
| 20260510005006 | 69 | 36 | 0.0 | 0.0 | 0.00 | 0.57 | 0.49 | 89 | 1013.3 |
| 20260510003857 | 69 | 36 | 0.0 | 0.0 | 0.00 | 0.59 | 0.49 | 90 | 1013.2 |
| 20260510003401 | 70 | 36 | 0.0 | 0.0 | 0.00 | 0.58 | 0.49 | 90 | 1013.0 |
| 20260510002855 | 70 | 36 | 0.0 | 0.0 | 0.00 | 0.58 | 0.48 | 90 | 1012.7 |
| 20260510002354 | 70 | 36 | 0.0 | 0.0 | 0.00 | 0.58 | 0.48 | 90 | 1012.6 |
| 20260510001900 | 70 | 36 | 0.0 | 0.0 | 0.00 | 0.58 | 0.48 | 90 | 1012.6 |
| 20260510001402 | 70 | 36 | 0.0 | 0.0 | 0.00 | 0.58 | 0.48 | 90 | 1012.6 |
| 20260510000907 | 70 | 36 | 0.0 | 0.0 | 0.00 | 0.58 | 0.48 | 91 | 1012.7 |
| 20260510000356 | 70 | 36 | 0.0 | 0.0 | 0.00 | 0.58 | 0.48 | 91 | 1012.9 |
| 20260509235852 | 70 | 28 | 0.0 | 0.0 | 0.00 | 0.58 | 0.48 | 91 | 1013.2 |
| 20260509235342 | 70 | 28 | 0.0 | 0.0 | 0.00 | 0.58 | 0.48 | 91 | 1012.9 |
| 20260509234824 | 70 | 28 | 0.0 | 0.0 | 0.00 | 0.58 | 0.48 | 91 | 1013.0 |
| 20260509234312 | 70 | 144 | 0.0 | 0.0 | 0.00 | 0.58 | 0.48 | 92 | 1013.2 |
| 20260509233812 | 70 | 144 | 0.0 | 0.0 | 0.00 | 0.58 | 0.48 | 92 | 1013.2 |
| 20260509233318 | 70 | 144 | 0.0 | 0.0 | 0.00 | 0.58 | 0.48 | 93 | 1013.1 |
| 20260509232812 | 70 | 144 | 0.0 | 0.0 | 0.00 | 0.58 | 0.48 | 93 | 1012.9 |
| 20260509232306 | 70 | 144 | 0.0 | 0.0 | 0.00 | 0.58 | 0.48 | 93 | 1013.0 |
| 20260509231802 | 70 | 144 | 0.0 | 0.0 | 0.00 | 0.58 | 0.48 | 94 | 1013.0 |
| 20260509231308 | 71 | 144 | 0.0 | 0.0 | 0.00 | 0.58 | 0.48 | 94 | 1012.7 |